Weather History for Ft Lauderdale, FL

Change the Weather History Date:

Tuesday, February 26, 2013

  Actual Average Record
Temperature  
Mean Temperature 80 °F 72 °F  
Max Temperature 84 °F 78 °F 89 °F (1926)
Min Temperature 76 °F 65 °F 37 °F (1967)
Degree Days  
Heating Degree Days 0 1  
Month to date heating degree days 19 26  
Since 1 July heating degree days 43 106  
Cooling Degree Days 15 7  
Month to date cooling degree days 193 173  
Year to date cooling degree days 448 343  
Growing Degree Days 30 (Base 50)    
Moisture  
Dew Point 71 °F    
Average Humidity 77    
Maximum Humidity 88    
Minimum Humidity 65    
Precipitation  
Precipitation T in 0.10 in 1.32 in (1976)
Month to date precipitation 1.91 2.78  
Year to date precipitation 2.89 6.41  
Snow  
Snow 0.00 in - - ()
Month to date snowfall 0.0  
Since 1 July snowfall 0.0  
Snow Depth 0.00 in    
Sea Level Pressure  
Sea Level Pressure 29.85 in    
Wind  
Wind Speed 12 mph (South)    
Max Wind Speed 21 mph    
Max Gust Speed 26 mph    
Visibility 10 miles    
Events Rain    
T = Trace of Precipitation, MM = Missing Value Source: NWS Daily Summary

Daily Weather History Graph

Daily Weather History Graph

Search for Another Location

Airport:

Trip Planner

Search our weather history database for the weather conditions in past years. The results will help you decide how hot, cold, wet, or windy it might be!

Date:

Astronomy

Feb. 26, 2013 Rise Set
Actual Time 6:46 AM EST 6:20 PM EST
Civil Twilight 6:23 AM EST 6:43 PM EST
Nautical Twilight 5:56 AM EST 7:10 PM EST
Astronomical Twilight 5:29 AM EST 7:37 PM EST
Moon 7:22 PM EST (2/26) 6:58 AM EST (2/26)
Length of Visible Light 12h 20m
Length of Day
11h 34m
Full, 99% of the Moon is Illuminated
Feb 26
Full
Mar 4
Last Quarter
Mar 11
New
Mar 19
First Quarter
Mar 27
Full

Hourly Weather History & Observations

Time (EST) Temp. Heat Index Dew Point Humidity Pressure Visibility Wind Dir Wind Speed Gust Speed Precip Events Conditions
12:53 AM 75.9 °F - 71.1 °F 85% 29.85 in 10.0 mi South 8.1 mph - N/A   Mostly Cloudy
1:53 AM 77.0 °F - 69.1 °F 76% 29.83 in 10.0 mi South 8.1 mph 18.4 mph N/A   Mostly Cloudy
2:53 AM 77.0 °F - 70.0 °F 79% 29.81 in 10.0 mi South 18.4 mph 25.3 mph N/A   Partly Cloudy
3:53 AM 75.9 °F - 70.0 °F 82% 29.81 in 10.0 mi South 12.7 mph 18.4 mph N/A   Mostly Cloudy
4:49 AM 75.2 °F - 71.6 °F 89% 29.82 in 10.0 mi South 9.2 mph - N/A   Scattered Clouds
4:53 AM 75.9 °F - 71.1 °F 85% 29.82 in 10.0 mi South 9.2 mph - N/A   Scattered Clouds
5:53 AM 75.9 °F - 70.0 °F 82% 29.82 in 10.0 mi South 9.2 mph - N/A   Partly Cloudy
6:17 AM 75.2 °F - 69.8 °F 83% 29.83 in 10.0 mi South 9.2 mph - N/A   Mostly Cloudy
6:31 AM 75.2 °F - 69.8 °F 83% 29.83 in 10.0 mi South 9.2 mph - N/A   Mostly Cloudy
6:53 AM 75.9 °F - 70.0 °F 82% 29.83 in 10.0 mi South 12.7 mph 17.3 mph N/A   Mostly Cloudy
7:06 AM 77.0 °F - 71.6 °F 83% 29.84 in 10.0 mi South 10.4 mph 19.6 mph N/A   Mostly Cloudy
7:53 AM 78.1 °F - 72.0 °F 81% 29.86 in 10.0 mi South 11.5 mph 18.4 mph N/A   Mostly Cloudy
8:53 AM 81.0 °F 84.1 °F 69.1 °F 67% 29.88 in 10.0 mi SSW 16.1 mph 21.9 mph N/A   Scattered Clouds
9:53 AM 82.0 °F 85.9 °F 70.0 °F 67% 29.88 in 10.0 mi South 12.7 mph - N/A   Scattered Clouds
10:53 AM 82.9 °F 86.5 °F 69.1 °F 63% 29.88 in 10.0 mi South 16.1 mph 23.0 mph N/A   Mostly Cloudy
11:53 AM 80.1 °F 83.2 °F 70.0 °F 71% 29.89 in 10.0 mi South 15.0 mph 25.3 mph 0.00 in Rain Light Rain
12:53 PM 82.9 °F 87.5 °F 71.1 °F 67% 29.88 in 10.0 mi South 15.0 mph 21.9 mph 0.00 in   Mostly Cloudy
1:53 PM 84.0 °F 89.0 °F 71.1 °F 65% 29.85 in 10.0 mi South 18.4 mph 24.2 mph 0.00 in   Mostly Cloudy
2:53 PM 82.9 °F 87.0 °F 70.0 °F 65% 29.83 in 10.0 mi South 18.4 mph 25.3 mph N/A   Mostly Cloudy
3:53 PM 81.0 °F 84.9 °F 71.1 °F 72% 29.83 in 10.0 mi South 15.0 mph 24.2 mph N/A   Mostly Cloudy
4:53 PM 81.0 °F 84.9 °F 71.1 °F 72% 29.83 in 10.0 mi SSW 10.4 mph - N/A   Mostly Cloudy
5:53 PM 81.0 °F 84.9 °F 71.1 °F 72% 29.85 in 10.0 mi SSW 8.1 mph - N/A   Mostly Cloudy
6:53 PM 81.0 °F 84.1 °F 69.1 °F 67% 29.86 in 10.0 mi WSW 10.4 mph - N/A   Scattered Clouds
7:53 PM 79.0 °F - 70.0 °F 74% 29.88 in 10.0 mi SW 6.9 mph - N/A   Partly Cloudy
8:53 PM 78.1 °F - 71.1 °F 79% 29.90 in 10.0 mi South 6.9 mph - N/A   Scattered Clouds
9:53 PM 77.0 °F - 73.0 °F 88% 29.90 in 10.0 mi SSW 6.9 mph - N/A   Partly Cloudy
10:53 PM 77.0 °F - 73.0 °F 88% 29.90 in 9.0 mi South 5.8 mph - N/A   Scattered Clouds
11:53 PM 77.0 °F - 73.0 °F 88% 29.90 in 10.0 mi SSW 5.8 mph - N/A   Partly Cloudy